Home   Weather   Malmö   Past weeks

Flag for Sweden Past Weather in Malmö, Sweden — Yesterday and Last 2 Weeks

45 °F

Passing clouds.

Feels Like: 38 °F
Forecast: 43 / 49 °F
Wind: 13 mph from Northeast

Location: Malmo / Sturup

Current Time: Oct 22, 2016 at 4:02:26 AM

Latest Report: Oct 22, 2016 at 3:20 AM

Visibility: N/A

Pressure: 30.01 "Hg

Humidity: 93%

Dew Point: 43 °F

Location of MalmöLocation

Past Weather in Malmö — Graph


Malmö Temperature Yesterday

Maximum temperature yesterday: 48 °F (at 3:20 AM)
Minimum temperature yesterday: 45 °F (at 7:20 AM)
Average temperature yesterday: 46 °F

High & Low Weather Summary for the Past Weeks

High55 °F (Oct 7, 4:50 PM)100% (Oct 8, 2:20 AM)30.36 "Hg (Oct 8, 2:20 AM)
Low37 °F (Oct 8, 5:50 AM)58% (Oct 7, 4:20 PM)29.92 "Hg (Oct 19, 7:50 PM)
Average47 °F88%30.19 "Hg
* Reported Oct 7 2:20 AM — Oct 22 2:20 AM, Malmö, Weather by CustomWeather, © 2016

Note: Actual official high and low records may vary slightly from our data, if they occured in-between our weather recording intervals... More about our weather records


Malmö Weather History for the Previous 24 Hours

Scroll right to see more
Time TempWeatherWind HumidityBarometerVisibility
2:20 AM
Sat, Oct 22
45 °FFog.12 mph100%30.01 "Hg4 mi
1:20 AM45 °FDrizzle. Mostly cloudy.14 mph93%30.04 "Hg4 mi
12:50 AM46 °FDrizzle. Mostly cloudy.10 mph93%30.04 "Hg4 mi
12:20 AM46 °FFog.9 mph93%30.04 "Hg5 mi
11:50 PM
Fri, Oct 21
46 °FFog.8 mph93%30.04 "Hg4 mi
11:20 PM45 °FFog.8 mph100%30.04 "Hg4 mi
10:50 PM45 °FFog.8 mph100%30.04 "Hg4 mi
10:20 PM45 °FFog.9 mph100%30.04 "Hg4 mi
9:50 PM46 °FPassing clouds.13 mph93%30.04 "Hg5 mi
9:20 PM46 °FPassing clouds.12 mph93%30.04 "HgN/A
8:50 PM46 °FPassing clouds.12 mph93%30.04 "HgN/A
8:20 PM46 °FPartly cloudy.10 mph93%30.04 "HgN/A
7:50 PM46 °FClear.10 mph93%30.01 "Hg10 mi
7:20 PM46 °FFog.12 mph93%30.01 "Hg6 mi
6:50 PM46 °FMostly cloudy.12 mph93%30.01 "HgN/A
6:20 PM46 °FFog.12 mph93%30.01 "Hg4 mi
5:50 PM46 °FPassing clouds.10 mph93%30.01 "HgN/A
5:20 PM46 °FRain. Partly sunny.9 mph93%30.01 "Hg4 mi
4:50 PM46 °FRain. Broken clouds.10 mph93%30.01 "Hg5 mi
4:20 PM46 °FLight rain. Broken clouds.9 mph93%30.01 "Hg3 mi
3:50 PM46 °FDrizzle. Partly sunny.12 mph93%29.98 "Hg4 mi
3:20 PM46 °FPartly sunny.12 mph93%29.98 "HgN/A
2:50 PM46 °FPartly sunny.10 mph93%29.98 "HgN/A
2:20 PM46 °FDrizzle. Fog.12 mph93%29.98 "Hg3 mi
1:50 PM46 °FLight rain. Partly sunny.13 mph93%29.98 "Hg2 mi
1:20 PM46 °FPartly sunny.13 mph93%29.98 "HgN/A
12:50 PM46 °FPartly sunny.14 mph93%29.98 "HgN/A
12:20 PM46 °FPartly sunny.14 mph93%29.98 "HgN/A
11:50 AM46 °FDrizzle. Partly sunny.15 mph93%29.98 "HgN/A
11:20 AM46 °FDrizzle. Partly sunny.14 mph93%29.98 "HgN/A
10:50 AM46 °FDrizzle. Partly sunny.14 mph93%29.98 "HgN/A
10:20 AM46 °FDrizzle. Broken clouds.14 mph93%29.98 "HgN/A
9:50 AM46 °FDrizzle. More clouds than sun.14 mph93%29.95 "HgN/A
9:20 AM45 °FDrizzle. Partly sunny.14 mph93%29.95 "HgN/A
8:50 AM45 °FDrizzle. Fog.14 mph93%29.95 "Hg6 mi
8:20 AM45 °FDrizzle. Partly sunny.13 mph93%29.95 "Hg6 mi
7:50 AM45 °FDrizzle. Partly sunny.14 mph93%29.95 "Hg6 mi
7:20 AM45 °FPassing clouds.14 mph93%29.95 "HgN/A
6:50 AM46 °FDrizzle. Overcast.14 mph93%29.95 "HgN/A
6:20 AM46 °FPassing clouds.14 mph93%29.95 "HgN/A
5:50 AM46 °FPassing clouds.13 mph93%29.95 "HgN/A
5:20 AM46 °FLight rain. Passing clouds.13 mph93%29.95 "HgN/A
4:50 AM46 °FLight rain. Overcast.14 mph93%29.95 "HgN/A
4:20 AM46 °FLight rain. Partly cloudy.12 mph93%29.95 "HgN/A
Weather by CustomWeather, © 2016

See weather overviewHow to use our weather pages